CW8690 Weather Reports


Display with metric or nautical units.
time (UTC)temp
F
wind
direction
speed
MPH
gust
MPH
rain 1hr
in
rain 24hr
in
rain mn
in
humidity
%
barometer
mb
20260503204125 79 63 3.0 10.0 0.00 0.00 0.00 60 1017.5
20260503202625 79 76 4.0 11.0 0.00 0.00 0.00 58 1017.9
20260503201121 81 110 7.0 15.0 0.00 0.00 0.00 59 1018.2
20260503195617 81 114 8.0 14.0 0.00 0.00 0.00 57 1018.4
20260503194117 80 97 8.0 14.0 0.00 0.00 0.00 58 1018.5
20260503192619 80 26 5.0 14.0 0.00 0.00 0.00 59 1018.6
20260503191137 79 80 7.0 14.0 0.00 0.00 0.00 58 1018.7
20260503185621 80 90 1.0 13.0 0.00 0.00 0.00 62 1019.1
20260503184137 81 104 3.0 13.0 0.00 0.00 0.00 59 1019.2
20260503182619 80 72 4.0 10.0 0.00 0.00 0.00 61 1019.3
20260503181121 79 113 5.0 13.0 0.00 0.00 0.00 60 1019.6
20260503175618 79 82 5.0 10.0 0.00 0.00 0.00 59 1020.0
20260503174158 81 59 5.0 15.0 0.00 0.00 0.00 59 1019.9
20260503171141 80 115 7.0 14.0 0.00 0.00 0.00 61 1020.3
20260503131118 65 310 1.0 3.0 0.00 0.00 0.00 85 1019.5
20260503081119 63 300 1.0 3.0 0.00 0.00 0.00 87 1019.0
20260503072633 63 301 1.0 2.0 0.00 0.00 0.00 87 1019.1
20260503071123 63 301 1.0 3.0 0.00 0.00 0.00 87 1019.1
20260503054123 65 296 1.0 3.0 0.00 0.00 0.00 84 1019.9
20260503052701 65 296 1.0 3.0 0.00 0.00 0.00 84 1019.9
20260503051127 65 297 1.0 5.0 0.00 0.00 0.00 84 1019.8
20260503045645 64 290 1.0 3.0 0.00 0.00 0.00 84 1019.7
20260503044127 65 290 0.0 3.0 0.00 0.00 0.00 83 1019.4
20260503042644 65 290 0.0 2.0 0.00 0.00 0.00 82 1019.5
20260503041133 65 290 2.0 4.0 0.00 0.00 0.00 81 1019.6
20260503034135 65 39 1.0 2.0 0.00 0.00 0.00 81 1019.4
20260503032624 65 39 0.0 2.0 0.00 0.00 0.00 80 1019.2
20260503031121 65 58 0.0 0.0 0.00 0.00 0.00 79 1019.0
20260503025624 66 58 0.0 1.0 0.00 0.00 0.00 79 1018.6
20260503024121 66 58 0.0 2.0 0.00 0.00 0.00 78 1018.4
20260503022623 66 322 0.0 0.0 0.00 0.00 0.00 78 1018.4
20260503021122 67 319 0.0 2.0 0.00 0.00 0.00 78 1018.2
20260503015625 67 319 0.0 2.0 0.00 0.00 0.00 76 1018.2
20260503014124 68 319 0.0 2.0 0.00 0.00 0.00 75 1017.7
20260503012621 69 68 0.0 4.0 0.00 0.00 0.00 74 1017.4
20260503011124 69 321 1.0 4.0 0.00 0.00 0.00 73 1017.3
20260503005625 70 25 0.0 6.0 0.00 0.00 0.00 72 1017.4
20260503004122 70 348 0.0 9.0 0.00 0.00 0.00 72 1017.3
20260503002625 70 76 1.0 8.0 0.00 0.00 0.00 72 1017.2
20260503001142 71 346 2.0 6.0 0.00 0.00 0.00 74 1017.1
20260502235620 71 5 2.0 8.0 0.00 0.00 0.00 75 1017.0
20260502234122 71 333 2.0 12.0 0.00 0.00 0.00 75 1016.9
20260502232620 72 11 2.0 11.0 0.00 0.00 0.00 75 1016.7
20260502231140 72 48 3.0 9.0 0.00 0.00 0.00 74 1016.6
20260502225630 73 351 2.0 10.0 0.00 0.00 0.00 74 1016.6
20260502224124 73 165 2.0 9.0 0.00 0.00 0.00 73 1016.7
20260502222700 73 257 3.0 11.0 0.00 0.00 0.00 74 1016.5
20260502221126 72 5 2.0 10.0 0.00 0.00 0.00 74 1016.5
20260502215623 72 66 3.0 12.0 0.00 0.00 0.00 74 1016.5
20260502214136 72 344 3.0 9.0 0.00 0.00 0.00 76 1016.8
20260502212625 70 355 3.0 12.0 0.00 0.00 0.00 78 1016.8
20260502211140 70 20 2.0 8.0 0.00 0.00 0.00 76 1016.9
20260502205631 71 341 4.0 10.0 0.00 0.00 0.00 77 1017.1